TimeEDT,TemperatureF,Dew PointF,Humidity,Sea Level PressureIn,VisibilityMPH,Wind Direction,Wind SpeedMPH,Gust SpeedMPH,PrecipitationIn,Events,Conditions,WindDirDegrees,DateUTC
12:15 AM,45.7,32.7,61,30.14,10.0,NNW,5.8,-,N/A,,Mostly Cloudy,340,2012-10-07 04:15:00
12:35 AM,45.5,32.9,61,30.13,10.0,NNW,5.8,-,N/A,,Overcast,330,2012-10-07 04:35:00
12:55 AM,45.3,33.3,63,30.13,10.0,NW,4.6,-,N/A,,Overcast,310,2012-10-07 04:55:00
1:15 AM,45.1,33.3,63,30.13,10.0,NNW,4.6,-,N/A,,Overcast,330,2012-10-07 05:15:00
1:35 AM,44.8,33.3,64,30.12,10.0,NNW,4.6,-,N/A,,Overcast,330,2012-10-07 05:35:00
1:55 AM,44.6,34.2,67,30.12,10.0,NW,4.6,-,N/A,,Overcast,310,2012-10-07 05:55:00
2:15 AM,44.6,34.9,69,30.11,10.0,NNW,5.8,-,N/A,,Overcast,330,2012-10-07 06:15:00
2:35 AM,44.6,35.1,69,30.12,10.0,NNW,5.8,-,N/A,,Overcast,340,2012-10-07 06:35:00
2:55 AM,44.4,34.9,69,30.11,10.0,NNW,6.9,-,N/A,,Overcast,330,2012-10-07 06:55:00
3:15 AM,44.1,35.2,71,30.10,10.0,North,6.9,-,N/A,,Overcast,350,2012-10-07 07:15:00
3:35 AM,43.7,35.4,73,30.11,10.0,NW,3.5,-,N/A,,Overcast,310,2012-10-07 07:35:00
3:55 AM,43.3,35.6,74,30.12,10.0,WNW,3.5,-,N/A,,Overcast,300,2012-10-07 07:55:00
4:15 AM,43.2,35.8,75,30.11,10.0,Calm,Calm,-,N/A,,Overcast,0,2012-10-07 08:15:00
4:35 AM,43.2,35.8,75,30.11,10.0,NW,3.5,-,N/A,,Overcast,310,2012-10-07 08:35:00
4:55 AM,43.2,36.1,76,30.10,10.0,Calm,Calm,-,N/A,,Overcast,0,2012-10-07 08:55:00
5:15 AM,43.3,35.6,74,30.10,10.0,NNW,3.5,-,N/A,,Overcast,340,2012-10-07 09:15:00
5:35 AM,43.7,35.6,73,30.10,10.0,Calm,Calm,-,N/A,,Overcast,0,2012-10-07 09:35:00
5:55 AM,42.8,36.5,78,30.10,10.0,WNW,3.5,-,N/A,,Overcast,300,2012-10-07 09:55:00
6:15 AM,42.8,36.5,78,30.10,10.0,WNW,4.6,-,N/A,,Overcast,300,2012-10-07 10:15:00
6:35 AM,42.8,36.0,77,30.11,10.0,WNW,4.6,-,N/A,,Overcast,300,2012-10-07 10:35:00
6:55 AM,42.8,36.1,77,30.11,10.0,WNW,4.6,-,N/A,,Overcast,300,2012-10-07 10:55:00
7:15 AM,42.8,36.0,77,30.11,10.0,NW,3.5,-,N/A,,Overcast,310,2012-10-07 11:15:00
7:23 AM,42.8,35.6,76,30.11,10.0,NW,3.5,-,N/A,,Overcast,310,2012-10-07 11:23:00
7:35 AM,42.4,36.7,80,30.11,10.0,WNW,3.5,-,N/A,,Overcast,300,2012-10-07 11:35:00
7:50 AM,42.8,37.4,81,30.11,10.0,NW,3.5,-,N/A,,Overcast,320,2012-10-07 11:50:00
7:55 AM,42.3,37.0,82,30.11,10.0,Calm,Calm,-,N/A,,Overcast,0,2012-10-07 11:55:00
8:15 AM,42.3,37.4,83,30.12,10.0,Calm,Calm,-,N/A,,Overcast,0,2012-10-07 12:15:00
8:50 AM,42.8,37.4,81,30.12,10.0,Calm,Calm,-,N/A,,Overcast,0,2012-10-07 12:50:00
9:57 AM,42.8,37.4,81,30.14,10.0,West,3.5,-,N/A,,Overcast,280,2012-10-07 13:57:00
10:50 AM,44.6,35.6,71,30.14,10.0,Calm,Calm,-,N/A,,Overcast,0,2012-10-07 14:50:00
11:50 AM,46.4,37.4,71,30.15,10.0,WNW,6.9,-,N/A,,Overcast,290,2012-10-07 15:50:00
12:50 PM,46.4,35.6,66,30.15,10.0,Calm,Calm,-,N/A,,Overcast,0,2012-10-07 16:50:00
1:50 PM,46.4,37.4,71,30.15,7.0,West,5.8,-,N/A,Rain,Light Rain,260,2012-10-07 17:50:00
2:50 PM,44.6,37.4,76,30.15,7.0,West,8.1,-,N/A,Rain,Light Rain,280,2012-10-07 18:50:00
3:50 PM,48.2,35.6,62,30.14,10.0,West,3.5,-,N/A,,Scattered Clouds,280,2012-10-07 19:50:00
4:55 PM,48.2,33.8,58,30.13,10.0,WSW,5.8,-,N/A,,Overcast,250,2012-10-07 20:55:00
5:55 PM,48.2,33.8,58,30.15,10.0,WSW,5.8,-,N/A,,Overcast,250,2012-10-07 21:55:00
9:15 PM,45.3,35.8,69,30.18,10.0,WSW,3.5,-,N/A,,Overcast,250,2012-10-08 01:15:00
9:35 PM,45.1,36.0,70,30.18,10.0,Calm,Calm,-,N/A,,Overcast,0,2012-10-08 01:35:00
9:55 PM,45.5,35.4,68,30.18,10.0,WSW,3.5,-,N/A,,Overcast,240,2012-10-08 01:55:00
10:15 PM,44.6,36.1,72,30.19,10.0,WSW,3.5,-,N/A,,Overcast,240,2012-10-08 02:15:00
10:35 PM,44.1,35.6,72,30.18,10.0,West,3.5,-,N/A,,Overcast,280,2012-10-08 02:35:00
10:55 PM,43.3,34.9,72,30.19,10.0,WSW,3.5,-,N/A,,Overcast,250,2012-10-08 02:55:00
11:15 PM,43.9,33.8,68,30.19,10.0,West,3.5,-,N/A,,Overcast,280,2012-10-08 03:15:00
11:35 PM,41.0,33.6,75,30.19,10.0,WSW,4.6,-,N/A,,Overcast,240,2012-10-08 03:35:00
11:55 PM,42.8,33.4,70,30.19,10.0,West,3.5,-,N/A,,Mostly Cloudy,260,2012-10-08 03:55:00